Погода в Абабкове

Россия / Нижегородская область     56°01′40″N   43°09′18″E
темп.,
°C
ветер,
м/с
пор.,
м/с
влажн.,
%
обл.,
%
осадки,
мм/ч
давл.,
гПа
погр.,
м
1 июля, пт
пт100:00+13св51053100 0.0 1014306
03:00+9ссв510652 0.0 1016302
06:00+10св610661 0.0 1016725
09:00+12ссв71054100 0.0 10171442
12:00+9св61178100 0.4 10191174
15:00+13св7106388 0.4 10191451
18:00+14св486471 0.0 10191050
21:00+11ссв36805 0.0 102085
2 июля, сб
сб200:00+9с410900 0.0 1020163
03:00+9с368910 0.0 102094
06:00+12с410775 0.0 1020249
09:00+18с57552 0.0 1020789
12:00+21ссв57455 0.0 10181744
15:00+23ссв56445 0.0 10171744
18:00+22с37582 0.0 1015361
21:00+17сз4107484 0.0 1015162
3 июля, вс
вс300:00+17сз4972100 0.0 1014209
03:00+15ссз388460 0.0 1013148
06:00+17св38810 0.0 1014268
09:00+20св586814 0.0 1014991
12:00+22св68532 0.0 10141515
15:00+23св575013 0.0 10141798
18:00+23ссв36619 0.0 1014496
21:00+16вюв2279100 0.0 101611
4 июля, пн
пн400:00+14всв11824 0.0 101611
03:00+13сз11835 0.0 101710
06:00+16сз248198 0.0 1017121
09:00+21ссз465866 0.0 1017637
12:00+25ссв464621 0.0 10172301
15:00+26с35425 0.0 10162381
18:00+25с23575 0.0 1015181
21:00+19вюв126613 0.0 101611
5 июля, вт
вт500:00+18ю226578 0.0 101735
03:00+18юз226967 0.0 101719
06:00+20зсз227039 0.0 101776
09:00+24з12550 0.0 1017448
12:00+27зюз22440 0.0 10161520
15:00+28юз134017 0.0 10151789
18:00+27юз3456100 0.0 1014128
21:00+19юз478358 0.1 1014113